Location: Cuzcurrita-R�o Tir�n
(42.5415°N, 2.9642°W)
Time: 17:59:52
(UTC+00:00)

COSMOS 2455 - Pass Details

Date: 17 January 2021
Orbit: 901 x 908 km, 67.1° (Epoch: 03 March)

Event Time Altitude Azimuth Distance (km) Brightness Sun altitude
Rises 17:28:06 0° 164° (SSE) 3,514 6.0 -4.4°
Reaches altitude 10° 17:31:19 10° 147° (SSE) 2,580 5.1 -4.9°
Maximum altitude 17:35:20 19° 104° (ESE) 2,019 4.2 -5.6°
Drops below altitude 10° 17:39:23 10° 61° (ENE) 2,595 4.6 -6.3°
Enters shadow 17:40:25 - 55° (NE) 2,872 4.8 -6.5°
